Rome, Italy

10:34 AM CET on February 27, 2017 (GMT +0100)
Fiumicino

Weather History for LIRF - November, 2012

Change the Weather History Date:

Thursday, November 29, 2012

  Actual Average Record
Temperature  
Mean Temperature 56 °F -  
Max Temperature 59 °F 57 °F 68 °F (2014)
Min Temperature 53 °F 41 °F 34 °F (2015)
Degree Days  
Heating Degree Days 9    
Growing Degree Days 6 (Base 50)    
Moisture  
Dew Point 47 °F    
Average Humidity 73    
Maximum Humidity 82    
Minimum Humidity 63    
Precipitation  
Precipitation 0.00 in 0.12 in - ()
Sea Level Pressure  
Sea Level Pressure 29.28 in    
Wind  
Wind Speed 17 mph ()    
Max Wind Speed 32 mph    
Max Gust Speed 43 mph    
Visibility 5.5 miles    
Events Rain , Thunderstorm    
Averages and records for this station are not official NWS values.
T = Trace of Precipitation, MM = Missing Value Source: Averaged Metar Reports

Daily Weather History Graph

Daily Weather History Graph

Search for Another Location

Airport or City:

Trip Planner

Search our weather history database for the weather conditions in past years. The results will help you decide how hot, cold, wet, or windy it might be!

Date:

Astronomy

Nov. 29, 2012 Rise Set
Actual Time 7:17 AM CET 4:41 PM CET
Civil Twilight 6:46 AM CET 5:12 PM CET
Nautical Twilight 6:11 AM CET 5:47 PM CET
Astronomical Twilight 5:38 AM CET 6:20 PM CET
Moon 5:30 PM CET (11/29) 7:50 AM CET (11/29)
Length of Visible Light 10h 26m
Length of Day
9h 24m
Full, 99% of the Moon is Illuminated
Nov 29
Full
Dec 6
Last Quarter
Dec 13
New
Dec 20
First Quarter
Dec 28
Full

Hourly Weather History & Observations

Time (CET) Temp. Dew Point Humidity Pressure Visibility Wind Dir Wind Speed Gust Speed Precip Events Conditions
12:20 AM 57.2 °F 46.4 °F 67% 29.33 in 6.2 mi SSW 19.6 mph - N/A   Mostly Cloudy
12:50 AM 57.2 °F 44.6 °F 63% 29.33 in 6.2 mi SSW 20.7 mph - N/A   Mostly Cloudy
1:20 AM 57.2 °F 46.4 °F 67% 29.33 in 6.2 mi SSW 21.9 mph - N/A   Mostly Cloudy
1:50 AM 57.2 °F 44.6 °F 63% 29.30 in 6.2 mi SSW 18.4 mph - N/A   Mostly Cloudy
2:20 AM 53.6 °F 46.4 °F 77% 29.30 in 5.0 mi SSW 15.0 mph - N/A Rain Light Rain
2:50 AM 55.4 °F 46.4 °F 72% 29.30 in 6.2 mi SSW 11.5 mph 23.0 mph N/A   Mostly Cloudy
3:20 AM 57.2 °F 44.6 °F 63% 29.30 in 6.2 mi SSW 16.1 mph - N/A   Mostly Cloudy
3:50 AM 55.4 °F 46.4 °F 72% 29.30 in 6.2 mi SSW 12.7 mph - N/A   Mostly Cloudy
4:20 AM 57.2 °F 46.4 °F 67% 29.30 in 6.2 mi SSW 12.7 mph - N/A Rain Light Rain
4:50 AM 55.4 °F 44.6 °F 67% 29.30 in 6.2 mi SSW 13.8 mph - N/A Rain Light Rain
5:20 AM 53.6 °F 44.6 °F 72% 29.30 in 6.2 mi SSW 12.7 mph - N/A   Scattered Clouds
5:50 AM 55.4 °F 46.4 °F 72% 29.30 in 6.2 mi SSW 9.2 mph - N/A   Scattered Clouds
6:20 AM 55.4 °F 44.6 °F 67% 29.30 in 6.2 mi South 9.2 mph - N/A   Mostly Cloudy
6:50 AM 57.2 °F 44.6 °F 63% 29.27 in 6.2 mi SSW 15.0 mph - N/A Thunderstorm Mostly Cloudy
7:20 AM 57.2 °F 48.2 °F 72% 29.27 in 6.2 mi SSW 11.5 mph - N/A Rain Light Rain
7:50 AM 57.2 °F 46.4 °F 67% 29.27 in 6.2 mi SSW 13.8 mph - N/A   Scattered Clouds
8:20 AM 57.2 °F 46.4 °F 67% 29.27 in 6.2 mi SSW 16.1 mph - N/A   Scattered Clouds
8:50 AM 55.4 °F 48.2 °F 77% 29.27 in 4.3 mi SSW 18.4 mph - N/A Rain Rain
9:20 AM 59.0 °F 46.4 °F 63% 29.27 in 6.2 mi South 18.4 mph - N/A   Mostly Cloudy
9:50 AM 59.0 °F 46.4 °F 63% 29.27 in 6.2 mi SSW 18.4 mph - N/A   Mostly Cloudy
10:20 AM 53.6 °F 46.4 °F 77% 29.30 in 5.0 mi SSW 18.4 mph - N/A Rain Rain
10:50 AM 53.6 °F 46.4 °F 77% 29.30 in 6.2 mi South 11.5 mph - N/A Rain Light Rain
11:20 AM 53.6 °F 48.2 °F 82% 29.27 in 5.6 mi SSW 21.9 mph 36.8 mph N/A Rain Rain
11:50 AM 55.4 °F 48.2 °F 77% 29.27 in 6.2 mi South 19.6 mph - N/A   Mostly Cloudy
12:20 PM 53.6 °F 48.2 °F 82% 29.24 in 4.3 mi SSW 19.6 mph - N/A Rain Rain
12:50 PM 55.4 °F 48.2 °F 77% 29.24 in 3.1 mi SSW 27.6 mph 42.6 mph N/A Rain Rain
1:20 PM 55.4 °F 48.2 °F 77% 29.24 in 3.1 mi SW 25.3 mph - N/A Rain Rain
1:50 PM 57.2 °F 44.6 °F 63% 29.24 in 5.0 mi SW 32.2 mph - N/A Rain Light Rain
2:20 PM 57.2 °F 46.4 °F 67% 29.21 in 5.0 mi SW 31.1 mph 42.6 mph N/A   Mostly Cloudy
2:50 PM 57.2 °F 46.4 °F 67% 29.24 in 5.0 mi SW 26.5 mph - N/A   Mostly Cloudy
3:20 PM 57.2 °F 48.2 °F 72% 29.24 in 5.0 mi SW 27.6 mph - N/A Rain Light Rain
3:50 PM 57.2 °F 48.2 °F 72% 29.24 in 5.0 mi SW 28.8 mph - N/A Rain Light Rain
4:20 PM 57.2 °F 50.0 °F 77% 29.24 in 5.0 mi SW 25.3 mph 36.8 mph N/A Rain Light Rain
4:50 PM 55.4 °F 46.4 °F 72% 29.24 in 5.0 mi SW 27.6 mph 39.1 mph N/A Rain Rain Showers
5:20 PM 53.6 °F 48.2 °F 82% 29.24 in 5.0 mi SW 20.7 mph - N/A Rain Light Rain Showers
5:50 PM 53.6 °F 48.2 °F 82% 29.27 in 5.0 mi SW 16.1 mph - N/A   Scattered Clouds
6:20 PM 55.4 °F 50.0 °F 82% 29.24 in 5.0 mi SW 15.0 mph - N/A   Partly Cloudy
6:50 PM 55.4 °F 50.0 °F 82% 29.27 in 5.0 mi WSW 17.3 mph - N/A   Partly Cloudy
7:20 PM 55.4 °F 48.2 °F 77% 29.27 in 5.0 mi SW 15.0 mph - N/A   Partly Cloudy
7:50 PM 55.4 °F 48.2 °F 77% 29.30 in 5.0 mi WSW 18.4 mph - N/A   Partly Cloudy
8:20 PM 55.4 °F 50.0 °F 82% 29.30 in 5.0 mi SW 17.3 mph - N/A Rain Light Rain
8:50 PM 55.4 °F 50.0 °F 82% 29.30 in 5.0 mi SW 19.6 mph - N/A Rain Light Rain
9:20 PM 55.4 °F 50.0 °F 82% 29.33 in 5.0 mi SW 17.3 mph - N/A   Unknown
9:50 PM 55.4 °F 48.2 °F 77% 29.33 in - SW 13.8 mph - N/A   Clear
10:20 PM 55.4 °F 48.2 °F 77% 29.33 in - SW 16.1 mph - N/A   Clear
10:50 PM 55.4 °F 48.2 °F 77% 29.33 in 6.2 mi SW 15.0 mph - N/A   Partly Cloudy
11:20 PM 55.4 °F 50.0 °F 82% 29.33 in 6.2 mi SW 16.1 mph - N/A   Scattered Clouds
11:50 PM 55.4 °F 50.0 °F 82% 29.36 in 6.2 mi SW 17.3 mph - N/A   Mostly Cloudy